Regional Weather Roundup
Issued by NWS

Home | Current Version | Previous Version | Text Only | Print | Product List | Glossary Off
Versions: 1 2 3 4 5 6 7 8 9 10 11 12 13 14 15 16 17 18 19 20 21 22 23 24 25 26 27 28 29 30 31 32 33 34 35 36 37 38 39 40 41 42 43 44 45 46 47 48 49 50

000
ASUS43 KLSX 090157
RWRMO

WEATHER SUMMARY FOR MISSOURI
NATIONAL WEATHER SERVICE SPRINGFIELD MO
800 PM CST THU DEC 08 2016

NOTE: "FAIR" INDICATES FEW OR NO CLOUDS BELOW 12,000 FEET WITH NO
       SIGNIFICANT WEATHER AND/OR OBSTRUCTIONS TO VISIBILITY.
       CURRENT SKY AND/OR WEATHER CONDITIONS ARE NOT AVAILABLE FOR
       CHILLICOTHE AND FARMINGTON.

MOZ001>031-035>038-043-044-053-054-090300-
...NORTHERN AND WESTERN MISSOURI...

CITY           SKY/WX    TMP DP  RH WIND       PRES   REMARKS
KANSAS CTY INT CLEAR     18   8  65 NW6       30.63R WCI  10
LEE`S SUMMIT   CLEAR     20  10  65 NW7       30.64R WCI  11
ST JOSEPH      CLEAR     17   9  70 W5        30.65S WCI  10
CHILLICOTHE      N/A     20  10  65 NW7       30.63R WCI  11

$$
MOZ066>068-077>081-088>096-101>105-090300-
...SOUTHWEST MISSOURI...

CITY           SKY/WX    TMP DP  RH WIND       PRES   REMARKS
SPRINGFIELD    CLEAR     21  12  68 NW6       30.60R WCI  13
BRANSON        CLEAR     25  12  58 NW13      30.60R WCI  13

$$
MOZ032>034-039>042-045>050-055>058-069>072-090300-
...CENTRAL MISSOURI...

CITY           SKY/WX    TMP DP  RH WIND       PRES   REMARKS
COLUMBIA       NOT AVBL
JEFFERSON CITY CLEAR     21  12  68 W7        30.63R WCI  12
ROLLA          CLEAR     21  12  68 W10       30.56S WCI  10
SEDALIA        CLEAR     21  11  65 NW8       30.63R WCI  11
WARRENSBURG    CLEAR     19  12  73 W5        30.64R WCI  13

$$
MOZ051-052-059>065-090300-
...EAST CENTRAL MISSOURI...

CITY           SKY/WX    TMP DP  RH WIND       PRES   REMARKS
ST LOUIS INTL  MOCLDY    26  11  52 W12       30.58R WCI  16

$$
MOZ072>076-082>087-097>100-106>115-090300-
...SOUTH CENTRAL AND SOUTHEAST MISSOURI...

CITY           SKY/WX    TMP DP  RH WIND       PRES   REMARKS
CAPE GIRARDEAU CLEAR     27  15  61 N8        30.57R WCI  19
POPLAR BLUFF   CLEAR     29  14  53 NW8       30.57R WCI  21
WEST PLAINS    CLEAR     24  12  60 NW7       30.57R WCI  16

$$


USA.gov is the U.S. government's official web portal to all federal, state and local government web resources and services.